Tracking 30995 objects as of 5-Jul-2025
HD Live streaming from Space Station
objects crossing your sky now

THORAD AGENA D DEB

Track THORAD AGENA D DEB now!
10-day predictions


NORAD ID: 4950
Int'l Code: 1970-025GL
Perigee: 1,061.5 km
Apogee: 1,398.1 km
Inclination: 99.9 °
Period: 109.9 minutes
Semi major axis: 7600 km
RCS: 0.0796 m2 (small)
Launch date: April 8, 1970
Source: United States (US)
Launch site: AIR FORCE WESTERN TEST RANGE (AFWTR)

Note: This is SATELLITE DEBRIS
Your satellite tracking list
STARLINK-5392
Track 1 satellite(s)




NASA's NSSDC Master Catalog

Two Line Element Set (TLE):
1 04950U 70025GL  25186.28389811 -.00000080  00000-0 -10507-3 0  9990
2 04950  99.8527 100.9253 0221421  99.4143  25.2914 13.10119950638079
Source of the keplerian elements: AFSPC